This is the latest recevied weather packets stored in our database for station/object DL1AIE-13. If no packets are shown the sender has not sent any weather packets the latest 10 day(s).
| Time | Temp. | Humidity | Pressure | Rain* | Wind** | Luminosity | Snow |
|---|---|---|---|---|---|---|---|
| 1777880239 | 17.22° C | 56% | 1014.9 hPa | 0 mm | - | - | - |
| 1777879655 | 17.22° C | 56% | 1014.7 hPa | 0 mm | - | - | - |
| 1777879051 | 16.67° C | 57% | 1014.7 hPa | 0 mm | - | - | - |
| 1777878448 | 16.67° C | 59% | 1014.8 hPa | 0 mm | - | - | - |
| 1777877844 | 16.67° C | 62% | 1014.8 hPa | 0 mm | - | - | - |
| 1777877240 | 17.22° C | 62% | 1014.6 hPa | 0 mm | - | - | - |
| 1777876637 | 16.11° C | 67% | 1014.7 hPa | 0 mm | - | - | - |
| 1777876053 | 14.44° C | 70% | 1014.7 hPa | 0 mm | - | - | - |
| 1777875450 | 13.89° C | 72% | 1014.7 hPa | 0 mm | - | - | - |
| 1777874846 | 13.89° C | 73% | 1014.6 hPa | 0 mm | - | - | - |
| 1777874245 | 13.33° C | 74% | 1014.6 hPa | 0 mm | - | - | - |
| 1777873639 | 12.78° C | 77% | 1014.7 hPa | 0 mm | - | - | - |
| 1777873055 | 12.22° C | 78% | 1014.7 hPa | 0 mm | - | - | - |
| 1777872451 | 11.11° C | 83% | 1014.7 hPa | 0 mm | - | - | - |
| 1777871848 | 10.56° C | 88% | 1014.6 hPa | 0 mm | - | - | - |
| 1777871244 | 10° C | 87% | 1014.4 hPa | 0 mm | - | - | - |
| 1777870642 | 9.44° C | 89% | 1014.6 hPa | 0 mm | - | - | - |
| 1777870037 | 10° C | 90% | 1014.5 hPa | 0 mm | - | - | - |
| 1777869453 | 9.44° C | 91% | 1014.5 hPa | 0 mm | - | - | - |
| 1777868850 | 9.44° C | 91% | 1014.3 hPa | 0 mm | - | - | - |
| 1777868246 | 9.44° C | 92% | 1014.3 hPa | 0 mm | - | - | - |
| 1777867642 | 8.89° C | 93% | 1014.4 hPa | 0 mm | - | - | - |
| 1777867038 | 8.89° C | 93% | 1014.4 hPa | 0 mm | - | - | - |
| 1777866455 | 8.89° C | 91% | 1014.3 hPa | 0 mm | - | - | - |
| 1777865852 | 9.44° C | 90% | 1014.4 hPa | 0 mm | - | - | - |
* Rain latest hour (hover to see other rain measurements)
** Current wind speed in m/s (hover to see current wind gust speed)